Location: Unspecified
(42.9300°N, 71.1866°W)
Time: 12:11:07
(UTC-04:00)

Genesis I - Visible Passes

Search period start: 05 May 2016 00:00
Search period end: 15 May 2016 00:00
Orbit: 494 x 542 km, 64.5° (Epoch: 05 May)

Date Brightness Start Highest point End Pass type
(mag) Time Alt. Az. Time Alt. Az. Time Alt. Az.
05 May 5.8 00:47:37 17° NW 00:47:46 17° NW 00:50:32 10° N visible
05 May 5.2 22:57:09 22° NE 22:57:09 22° NE 22:58:40 10° NE visible
06 May 5.8 00:32:07 16° NW 00:32:46 17° NW 00:35:29 10° N visible
06 May 4.6 22:41:27 31° NE 22:41:27 31° NE 22:43:40 10° NE visible
07 May 5.9 00:16:23 14° WNW 00:17:47 16° NW 00:20:25 10° N visible
07 May 3.6 22:25:21 54° ENE 22:25:21 54° ENE 22:28:39 10° NE visible
08 May 6.1 00:00:16 10° WNW 00:02:48 16° NW 00:05:22 10° N visible
08 May 3.1 22:08:32 47° SSW 22:09:35 74° ESE 22:13:39 10° NE visible
08 May 6.2 23:45:18 10° WNW 23:47:47 16° NW 23:50:17 10° N visible
09 May 7.0 04:47:04 10° NNE 04:47:33 10° NNE 04:48:03 10° NE visible
09 May 3.1 21:50:31 10° SSW 21:54:33 77° ESE 21:58:38 10° NE visible
09 May 6.3 23:30:23 10° WNW 23:32:48 15° NW 23:35:14 10° N visible
10 May 6.9 04:31:46 10° NNE 04:32:34 10° NNE 04:33:21 10° NE visible
10 May 3.1 21:35:30 10° SSW 21:39:32 81° ESE 21:43:37 10° NE visible
10 May 6.4 23:15:27 10° WNW 23:17:48 15° NW 23:20:09 10° N visible
11 May 6.9 04:16:34 10° NNE 04:17:34 11° NE 04:18:35 10° NE visible
11 May 3.2 21:20:28 10° SSW 21:24:30 84° SE 21:28:35 10° NE visible
11 May 6.5 23:00:32 10° WNW 23:02:48 14° NW 23:05:04 10° N visible
12 May 6.9 04:01:23 10° NNE 04:02:34 11° NE 04:03:45 10° NE visible
12 May 3.2 21:05:26 10° SSW 21:09:29 87° ESE 21:13:34 10° NE visible
12 May 6.6 22:45:37 10° WNW 22:47:48 14° NW 22:49:58 10° N visible
13 May 6.9 03:46:14 10° NNE 03:47:34 11° NE 03:48:54 10° NE visible
13 May 3.3 20:50:24 10° SSW 20:54:27 89° NW 20:58:32 10° NE visible
13 May 6.7 22:30:42 10° WNW 22:32:47 14° NW 22:34:53 10° N visible
14 May 6.9 03:31:05 10° NNE 03:32:34 12° NE 03:34:02 10° ENE visible
14 May 3.4 20:35:22 10° SW 20:39:25 86° WNW 20:43:30 10° NNE visible
14 May 6.8 22:15:47 10° WNW 22:17:47 13° NW 22:19:46 10° N visible
